Regional Weather Roundup
Issued by NWS

Home | Current Version | Previous Version | Text Only | Print | Product List | Glossary Off
Versions: 1 2 3 4 5 6 7 8 9 10 11 12 13 14 15 16 17 18 19 20 21 22 23 24 25 26 27 28 29 30 31 32 33 34 35 36 37 38 39 40 41 42 43 44 45 46 47 48 49 50

000
ASUS43 KDTX 190510
RWRMI
MICHIGAN HOURLY REGIONAL WEATHER ROUNDUP
NATIONAL WEATHER SERVICE DETROIT/PONTIAC MI
100 AM EDT SAT APR 19 2014

NOTE: "FAIR" INDICATES FEW OR NO CLOUDS BELOW 12,000 FEET WITH NO
SIGNIFICANT WEATHER AND/OR OBSTRUCTION TO VISIBILITY.

MIZ047>049-052>055-059>063-066>070-074>076-081>083-190600-
SOUTHEAST LOWER MICHIGAN

CITY           SKY/WX    TMP DP  RH WIND       PRES   REMARKS
ADRIAN         CLEAR     45  42  89 SE3       30.33R FOG
ALMA           CLEAR     35  26  69 NE6       30.40R WCI  30
ANN ARBOR      CLEAR     41  32  70 E8        30.35R
BAD AXE        CLEAR     32  28  83 N5        30.39S WCI  28
CARO           CLEAR     33  31  92 CALM      30.40R
DETROIT CITY   MOCLDY    40  29  64 NE8       30.38R WCI  34
DETROIT        MOCLDY    41  31  67 NE17      30.37R
FLINT          CLEAR     36  29  75 E8        30.40R WCI  30
GROSSE ILE     PTCLDY    39  32  75 NE15G21   30.35R WCI  31
HILLSDALE      CLEAR     45  31  59 N5        30.32R
HOWELL         CLEAR     38  32  81 E9        30.36R WCI  31

CITY           SKY/WX    TMP DP  RH WIND       PRES   REMARKS
JACKSON        CLEAR     42  32  67 NE9       30.33R
LAMBERTVILLE   CLEAR     45  37  76 E7        30.34R
LANSING        CLEAR     39  30  70 N8        30.37R WCI  33
LAPEER         FAIR      32  30  93 CALM      30.39R
MASON          PTCLDY    40  35  83 N8        30.36R WCI  34
MONROE         CLEAR     43  34  70 NE10      30.33R
MT. CLEMENS    CLEAR     35  29  79 N9        30.38R WCI  28
PONTIAC        CLEAR     35  28  75 NE7       30.37R WCI  29
PORT HOPE        N/A     36  30  79 N5        30.38R WCI  32
PORT HURON     CLEAR     34  30  86 N7        30.39S WCI  28
TRI CITIES     CLEAR     35  30  82 N7        30.41R WCI  29
TROY           MOCLDY    37  30  77 NE13G18   30.39R WCI  28
SAGINAW HB     CLEAR     34  32  93 NE3       30.40R
YPSILANTI      CLOUDY    44  32  62 NE14      30.36R
$$
MIZ043>046-050>051-056>058-064>065-071>073-077>080-190600-
SOUTHWEST LOWER MICHIGAN

CITY           SKY/WX    TMP DP  RH WIND       PRES   REMARKS
BATTLE CREEK   CLEAR     42  30  62 NE14      30.35R
BENTON HARBOR  CLEAR     30  26  85 CALM      30.35F
BIG RAPIDS     CLEAR     32  25  74 CALM      30.39R
COLDWATER      CLEAR     40  30  68 N3        30.33R
FREMONT        FAIR      35  24  64 NE9       30.39R WCI  27
HOLLAND        CLEAR     41  27  57 NE7       30.38R
GRAND RAPIDS   CLEAR     38  25  59 NE14      30.38R WCI  30
IONIA          FAIR      37  26  65 NE10      30.38R WCI  29
KALAMAZOO      CLEAR     38  28  67 N5        30.34S WCI  34
LUDINGTON      CLEAR     29  25  82 NE3       30.41S
MARSHALL       CLEAR     42  31  66 NE5       30.34R
MOUNT PLEASANT CLEAR     34  27  76 N5        30.40S WCI  29
MUSKEGON       CLEAR     38  23  55 NE12G18   30.39R WCI  30
SOUTH HAVEN    CLEAR     32  28  84 CALM      30.36R
$$
MIZ016>042-190600-
NORTHERN LOWER MICHIGAN

CITY           SKY/WX    TMP DP  RH WIND       PRES   REMARKS
ALPENA         CLEAR     31  28  89 NW5       30.40R WCI  26
BEAVER ISLAND  CLEAR     29  27  93 CALM      30.43S
BELLAIRE       CLEAR     28  26  93 CALM      30.42S
CADILLAC       CLEAR     28  26  90 N3        30.37R
CHARLEVOIX     CLEAR     31  29  92 N3        30.46S
FRANKFORT      CLEAR     30  26  84 CALM      30.43R
GAYLORD        CLEAR     30  26  85 CALM      30.37S
GRAYLING       CLEAR     26  23  91 CALM      30.39F
HARBOR SPRINGS CLEAR     29  27  92 CALM      30.41F
HOUGHTON LAKE  CLEAR     30  24  78 N6        30.38S WCI  24
MANISTEE       CLEAR     30  23  74 E5        30.42S WCI  25
OSCODA         CLEAR     29  23  80 CALM      30.39S
PELLSTON       CLEAR     29  25  85 CALM      30.42S
ROGERS CITY    CLEAR     32  31  94 NW7       30.42R WCI  26
TRAVERSE CITY  CLEAR     30  26  85 CALM      30.41R
$$
MIZ007>008-015-190600-
EASTERN UPPER MICHIGAN

CITY           SKY/WX    TMP DP  RH WIND       PRES   REMARKS
KINROSS        CLOUDY    30  30 100 N9        30.41S WCI  22
MACKINAC ISLAN CLEAR     29  28  96 NW6       30.41S WCI  23
NEWBERRY       CLEAR     27  25  91 W5        30.41S WCI  22
S. S. MARIE    CLOUDY    31  29  92 CALM      30.42R
MUNISING         N/A     27  23  85 CALM      30.44S
$$
MIZ004>006-011>014-085-190600-
CENTRAL UPPER MICHIGAN

CITY           SKY/WX    TMP DP  RH WIND       PRES   REMARKS
MANISTIQUE     CLEAR     26  25  94 N6        30.43S WCI  20
ESCANABA       CLEAR     30  25  80 NE3       30.42F
MENOMINEE      CLEAR     28  23  80 CALM      30.41S
SAWYER-GWINN   CLEAR     23  22  95 CALM      30.40S
$$
MIZ001>003-009>011-084-190600-
WESTERN UPPER MICHIGAN

CITY           SKY/WX    TMP DP  RH WIND       PRES   REMARKS
IRON MOUNTAIN  CLEAR     30  23  75 E5        30.38F WCI  25
HOUGHTON       CLEAR     27  24  89 E7        30.39F WCI  19
COPPER HARBOR    N/A     25  22  88 CALM      30.42F
IRONWOOD       CLOUDY    36  23  60 SE7       30.32R WCI  30
$$

ABBREVIATIONS USED IN REMARKS
   TC - TEMPERATURE IN CELSIUS
  WCI - WIND CHILL INDEX
   HX - HEAT INDEX
  VSB - VISIBILITY




USA.gov is the U.S. government's official web portal to all federal, state and local government web resources and services.